Weather History for Omaha, NE

Change the Weather History Date:

Sunday, September 15, 2013

  Actual Average Record
Temperature  
Mean Temperature 67 °F 66 °F  
Max Temperature 70 °F 78 °F 99 °F (1939)
Min Temperature 63 °F 54 °F 36 °F (1874)
Degree Days  
Heating Degree Days 0 3  
Month to date heating degree days 1 23  
Since 1 July heating degree days 6 31  
Cooling Degree Days 2 4  
Month to date cooling degree days 149 81  
Year to date cooling degree days 1215 1061  
Growing Degree Days 16 (Base 50)    
Moisture  
Dew Point 58 °F    
Average Humidity 72    
Maximum Humidity 87    
Minimum Humidity 57    
Precipitation  
Precipitation 0.23 in 0.09 in 1.34 in (1941)
Month to date precipitation 1.87 1.45  
Year to date precipitation 23.11 24.56  
Snow  
Snow 0.00 in 0.00 in - ()
Month to date snowfall 0.0 0.0  
Since 1 July snowfall 0.0 0.0  
Snow Depth 0.00 in    
Sea Level Pressure  
Sea Level Pressure 30.01 in    
Wind  
Wind Speed 10 mph (NNE)    
Max Wind Speed 21 mph    
Max Gust Speed 26 mph    
Visibility 9 miles    
Events Rain , Thunderstorm    
T = Trace of Precipitation, MM = Missing Value Source: NWS Daily Summary

Daily Weather History Graph

Daily Weather History Graph

Search for Another Location

Airport:

Trip Planner

Search our weather history database for the weather conditions in past years. The results will help you decide how hot, cold, wet, or windy it might be!

Date:

Astronomy

Sep. 15, 2013 Rise Set
Actual Time 7:04 AM CDT 7:32 PM CDT
Civil Twilight 6:36 AM CDT 8:00 PM CDT
Nautical Twilight 6:03 AM CDT 8:32 PM CDT
Astronomical Twilight 5:30 AM CDT 9:06 PM CDT
Moon 5:02 PM CDT (9/15) 2:41 AM CDT (9/15)
Length of Visible Light 13h 23m
Length of Day
12h 28m
Waxing Gibbous, 82% of the Moon is Illuminated
Sep 15
Waxing Gibbous
Sep 19
Full
Sep 26
Last Quarter
Oct 4
New
Oct 11
First Quarter

Hourly Weather History & Observations

Time (CDT) Temp. Dew Point Humidity Pressure Visibility Wind Dir Wind Speed Gust Speed Precip Events Conditions
12:52 AM 70.0 °F 54.0 °F 57% 29.86 in 10.0 mi SSE 11.5 mph - N/A   Overcast
1:52 AM 69.1 °F 54.0 °F 58% 29.86 in 10.0 mi SSE 10.4 mph - N/A   Overcast
2:52 AM 70.0 °F 53.1 °F 55% 29.85 in 10.0 mi South 9.2 mph - N/A   Overcast
3:52 AM 68.0 °F 55.9 °F 65% 29.85 in 10.0 mi South 9.2 mph - N/A   Overcast
4:52 AM 66.0 °F 57.9 °F 75% 29.85 in 10.0 mi South 10.4 mph - N/A   Overcast
5:06 AM 66.2 °F 57.2 °F 73% 29.87 in 10.0 mi South 11.5 mph - 0.00 in Rain , Thunderstorm Light Thunderstorms and Rain
5:52 AM 64.9 °F 63.0 °F 93% 29.88 in 4.0 mi South 6.9 mph - 0.11 in Rain , Thunderstorm Thunderstorms and Rain
6:01 AM 64.4 °F 62.6 °F 94% 29.90 in 5.0 mi South 6.9 mph - 0.03 in Rain Rain
6:52 AM 66.0 °F 64.0 °F 93% 29.89 in 5.0 mi Calm Calm - 0.06 in Rain Rain
6:59 AM 66.2 °F 64.4 °F 94% 29.91 in 5.0 mi Calm Calm - 0.03 in Rain Light Rain
7:01 AM 66.2 °F 64.4 °F 94% 29.91 in 5.0 mi Calm Calm - 0.03 in Rain Light Rain
7:20 AM 66.2 °F 64.4 °F 94% 29.90 in 9.0 mi NW 6.9 mph - 0.06 in Rain Light Rain
7:52 AM 66.0 °F 62.1 °F 87% 29.90 in 10.0 mi NNW 12.7 mph - 0.06 in Rain Light Rain
8:31 AM 64.4 °F 60.8 °F 88% 29.93 in 10.0 mi NNW 17.3 mph 21.9 mph 0.00 in Rain Light Rain
8:52 AM 64.9 °F 60.1 °F 84% 29.93 in 10.0 mi NNW 12.7 mph - 0.00 in   Overcast
9:47 AM 66.2 °F 60.8 °F 83% 29.98 in 10.0 mi NNW 10.4 mph - 0.00 in   Overcast
9:52 AM 66.0 °F 61.0 °F 84% 29.97 in 10.0 mi NNW 9.2 mph - 0.00 in   Overcast
10:52 AM 66.0 °F 61.0 °F 84% 30.01 in 10.0 mi North 8.1 mph - N/A   Overcast
11:52 AM 66.0 °F 59.0 °F 78% 30.03 in 10.0 mi North 16.1 mph 21.9 mph 0.00 in   Overcast
12:52 PM 66.9 °F 57.9 °F 73% 30.05 in 10.0 mi NNE 13.8 mph - N/A   Overcast
1:52 PM 66.9 °F 57.0 °F 70% 30.07 in 10.0 mi NNE 18.4 mph - N/A   Overcast
2:52 PM 66.0 °F 55.9 °F 70% 30.09 in 10.0 mi North 17.3 mph - N/A   Overcast
3:52 PM 68.0 °F 55.0 °F 63% 30.10 in 10.0 mi North 16.1 mph - N/A   Mostly Cloudy
4:23 PM 66.2 °F 55.4 °F 68% 30.12 in 10.0 mi NNE 16.1 mph 24.2 mph N/A   Mostly Cloudy
4:52 PM 66.9 °F 55.0 °F 66% 30.12 in 10.0 mi NNE 16.1 mph - N/A   Mostly Cloudy
5:52 PM 66.9 °F 55.0 °F 66% 30.13 in 10.0 mi NNE 15.0 mph - N/A   Mostly Cloudy
6:52 PM 66.0 °F 54.0 °F 65% 30.16 in 10.0 mi NNE 13.8 mph - N/A   Mostly Cloudy
7:52 PM 64.9 °F 54.0 °F 68% 30.18 in 10.0 mi NNE 4.6 mph - N/A   Mostly Cloudy
8:52 PM 64.0 °F 54.0 °F 70% 30.21 in 10.0 mi NNE 4.6 mph - N/A   Mostly Cloudy
9:52 PM 64.0 °F 54.0 °F 70% 30.22 in 10.0 mi NNE 4.6 mph - N/A   Overcast
10:52 PM 63.0 °F 54.0 °F 72% 30.23 in 10.0 mi NNE 5.8 mph - N/A   Overcast
11:52 PM 63.0 °F 53.1 °F 70% 30.25 in 10.0 mi NNE 4.6 mph - N/A   Mostly Cloudy